Location: Im Fang
(46.6019°N, 7.2397°E)
Time: 08:58:51
(UTC+00:00)

QB50P2 - Visible Passes

Search period start: 09 May 2021 00:00
Search period end: 19 May 2021 00:00
Orbit: 594 x 609 km, 97.9° (Epoch: 08 May)

Date Brightness Start Highest point End Pass type
(mag) Time Alt. Az. Time Alt. Az. Time Alt. Az.
09 May ? 00:37:12 10° NNE 00:41:30 89° NNE 00:41:30 89° NNE visible
09 May ? 02:15:11 10° NW 02:16:33 11° WNW 02:17:56 10° WNW visible
09 May ? 23:14:53 10° ENE 23:16:24 12° E 23:16:24 12° E visible
10 May ? 00:48:42 10° N 00:52:58 69° WNW 00:53:11 68° W visible
10 May ? 23:25:39 10° NE 23:28:04 16° E 23:28:04 16° E visible
11 May ? 01:00:15 10° N 01:04:25 52° WNW 01:04:51 50° W visible
11 May ? 23:36:40 10° NE 23:39:45 21° E 23:39:45 21° E visible
12 May ? 01:11:50 10° N 01:15:51 40° WNW 01:16:31 37° W visible
12 May ? 23:47:51 10° NE 23:51:25 27° E 23:51:25 27° E visible
13 May ? 01:23:28 10° N 01:27:15 31° WNW 01:28:11 28° W visible
13 May ? 23:59:07 10° NNE 00:03:04 35° E 00:03:04 35° E visible
14 May ? 01:35:09 10° N 01:38:39 25° WNW 01:39:51 22° W visible
15 May ? 00:10:28 10° NNE 00:14:36 46° E 00:14:45 46° ESE visible
15 May ? 01:46:55 10° NNW 01:50:01 20° WNW 01:51:31 17° W visible
16 May ? 00:21:52 10° NNE 00:26:06 62° E 00:26:24 60° ESE visible
16 May ? 01:58:47 10° NNW 02:01:22 16° WNW 02:03:11 13° W visible
17 May ? 00:33:17 10° NNE 00:37:35 82° ESE 00:38:04 69° S visible
17 May ? 02:10:53 10° NNW 02:12:42 12° WNW 02:14:30 10° W visible
17 May ? 23:11:26 10° ENE 23:12:48 11° E 23:12:56 11° E visible
18 May ? 00:44:46 10° N 00:49:04 77° WNW 00:49:43 61° SW visible
18 May ? 23:21:57 10° NE 23:24:25 15° E 23:24:36 15° E visible
